Content
SEND FEEDBACK

Daily
Averages
Monthly
Summary
United States of America

PORT WING, WISCONSIN


Home > North America > United States > Wisconsin
Elevation: 700 feet     Latitude: 46 46N     Longitude: 091 24W

WEATHER
 
SELECT A DAY
Number of Records: 456,890;   Date Range: 1/1/95 - 9/18/14
 
SHARE

PRINT THIS DATA

[ ← Previous Day ]
WEATHER ALMANAC - FEBRUARY 13, 2013
[ Next Day → ]
[ °C ]   °F
Weather ElementAverageHighLow
Temperature26.5 °F35.6 °F (1:11 pm)17.6 °F (6:31 am)
Dewpoint18.6 °F23 °F (1:11 pm)12.2 °F (6:31 am)
Humidity72.4 %86 % (5:51 am)60 % (11:51 am)
Barometer29.60 in29.63 in (12:31 am)29.56 in (2:31 pm)
Wind Speed3.9 mph9.2 mph (12:51 am)
Weather ElementAverage
Visibility10 mi
Wind DirectionS (174.5 °)

Weather ElementTotal
Precipitation---
Heating Degree Days38.4 (Base 65)
Averaged from 69 records on February 13, 2013
WEATHER CONDITIONS BREAKOUT
WIND DIRECTION BREAKOUT
WEATHER BY HOUR - FEBRUARY 13, 2013
[ °C ]   °F
Local TimeTemperatureDewpointHumidityBarometerVisibilityWind DirectionWind SpeedGust SpeedPrecipitationEventsConditions
12:31 AM26.6 °F17.6 °F69 %29.63 in10.0 miWest (270°)8.1 mphScattered Clouds
12:51 AM24.8 °F17.6 °F74 %29.63 in10.0 miWest (280°)9.2 mphScattered Clouds
1:11 AM24.8 °F17.6 °F74 %29.63 in10.0 miWNW (290°)8.1 mphOvercast
1:31 AM26.6 °F17.6 °F69 %29.63 in10.0 miWest (280°)8.1 mphOvercast
1:51 AM26.6 °F17.6 °F69 %29.63 in10.0 miWest (280°)6.9 mphOvercast
2:11 AM26.6 °F17.6 °F69 %29.63 in10.0 miWest (280°)5.8 mphOvercast
2:31 AM26.6 °F17.6 °F69 %29.62 in10.0 miWest (280°)8.1 mphOvercast
2:51 AM24.8 °F17.6 °F74 %29.62 in10.0 miWest (280°)6.9 mphOvercast
3:11 AM24.8 °F17.6 °F74 %29.62 in10.0 miWest (280°)6.9 mphOvercast
3:31 AM24.8 °F17.6 °F74 %29.62 in10.0 miWest (280°)9.2 mphOvercast
3:51 AM24.8 °F17.6 °F74 %29.62 in10.0 miWest (280°)5.8 mphOvercast
4:11 AM24.8 °F17.6 °F74 %29.61 in10.0 miWest (280°)6.9 mphOvercast
4:31 AM24.8 °F17.6 °F74 %29.62 in10.0 miWest (260°)5.8 mphOvercast
4:51 AM24.8 °F17.6 °F74 %29.62 in10.0 miSW (220°)5.8 mphOvercast
5:11 AM23.0 °F17.6 °F80 %29.62 in10.0 miWSW (240°)3.5 mphMostly Cloudy
5:31 AM21.2 °F15.8 °F80 %29.61 in10.0 miCalmScattered Clouds
5:51 AM19.4 °F15.8 °F86 %29.61 in10.0 miSW (230°)5.8 mphClear
6:11 AM19.4 °F15.8 °F86 %29.60 in10.0 miWSW (240°)4.6 mphClear
6:31 AM17.6 °F12.2 °F79 %29.60 in10.0 miSW (220°)5.8 mphClear
6:51 AM17.6 °F12.2 °F79 %29.60 in10.0 miWSW (240°)4.6 mphClear
7:11 AM17.6 °F12.2 °F79 %29.60 in10.0 miSW (230°)5.8 mphClear
7:31 AM17.6 °F12.2 °F79 %29.60 in10.0 miWSW (250°)5.8 mphClear
7:51 AM21.2 °F15.8 °F80 %29.60 in10.0 miWest (260°)4.6 mphClear
8:11 AM21.2 °F15.8 °F80 %29.60 in10.0 miWSW (240°)3.5 mphClear
8:31 AM21.2 °F17.6 °F86 %29.60 in10.0 miCalmScattered Clouds
8:51 AM24.8 °F17.6 °F74 %29.60 in10.0 miNW (310°)5.8 mphOvercast
9:11 AM24.8 °F17.6 °F74 %29.59 in10.0 miWNW (290°)4.6 mphOvercast
9:31 AM24.8 °F17.6 °F74 %29.59 in10.0 miWNW (290°)5.8 mphOvercast
9:51 AM24.8 °F17.6 °F74 %29.59 in10.0 miWNW (290°)5.8 mphOvercast
10:11 AM24.8 °F19.4 °F80 %29.59 in10.0 miWest (270°)6.9 mphOvercast
10:31 AM26.6 °F19.4 °F74 %29.59 in10.0 miWest (260°)5.8 mphScattered Clouds
11:11 AM30.2 °F21.2 °F69 %29.59 in10.0 miWest (260°)8.1 mphClear
11:31 AM32.0 °F21.2 °F64 %29.59 in10.0 miCalmClear
11:51 AM33.8 °F21.2 °F60 %29.58 in10.0 miWest (270°)5.8 mphClear
12:11 PM33.8 °F21.2 °F60 %29.58 in10.0 miWest (280°)8.1 mphClear
12:51 PM33.8 °F21.2 °F60 %29.57 in10.0 miWest (260°)8.1 mphClear
1:11 PM35.6 °F23.0 °F60 %29.57 in10.0 miNW (310°)3.5 mphClear
1:31 PM33.8 °F23.0 °F65 %29.57 in10.0 miNW (320°)6.9 mphClear
1:51 PM33.8 °F21.2 °F60 %29.57 in10.0 miNorth (350°)5.8 mphClear
2:11 PM32.0 °F21.2 °F64 %29.57 in10.0 miNW (320°)8.1 mphClear
2:31 PM33.8 °F21.2 °F60 %29.56 in10.0 miNNW (330°)4.6 mphClear
2:51 PM32.0 °F21.2 °F64 %29.57 in10.0 miNNW (330°)6.9 mphClear
3:11 PM32.0 °F21.2 °F64 %29.57 in10.0 miWNW (290°)5.8 mphClear
3:31 PM30.2 °F21.2 °F69 %29.58 in10.0 miNW (310°)4.6 mphClear
3:51 PM30.2 °F21.2 °F69 %29.58 in10.0 miCalmClear
4:11 PM30.2 °F21.2 °F69 %29.58 in10.0 miCalmClear
4:31 PM30.2 °F21.2 °F69 %29.59 in10.0 miCalmClear
4:51 PM28.4 °F19.4 °F69 %29.59 in10.0 miCalmMostly Cloudy
5:11 PM28.4 °F19.4 °F69 %29.60 in10.0 miNorth (350°)3.5 mphScattered Clouds
5:31 PM28.4 °F19.4 °F69 %29.60 in10.0 miCalmScattered Clouds
5:51 PM28.4 °F19.4 °F69 %29.60 in10.0 miCalmMostly Cloudy
6:11 PM28.4 °F19.4 °F69 %29.60 in10.0 miCalmOvercast
6:31 PM28.4 °F19.4 °F69 %29.60 in10.0 miCalmOvercast
6:51 PM28.4 °F19.4 °F69 %29.60 in10.0 miCalmOvercast
7:11 PM28.4 °F19.4 °F69 %29.60 in10.0 miNNE (20°)3.5 mphOvercast
7:31 PM26.6 °F19.4 °F74 %29.60 in10.0 miCalmOvercast
7:51 PM26.6 °F19.4 °F74 %29.61 in10.0 miCalmOvercast
8:11 PM26.6 °F19.4 °F74 %29.61 in10.0 miCalmOvercast
8:31 PM26.6 °F19.4 °F74 %29.61 in10.0 miCalmOvercast
8:51 PM26.6 °F19.4 °F74 %29.62 in10.0 miCalmOvercast
9:11 PM26.6 °F19.4 °F74 %29.62 in10.0 miCalmOvercast
9:31 PM26.6 °F19.4 °F74 %29.61 in10.0 miCalmOvercast
9:52 PM26.6 °F19.4 °F74 %29.61 in10.0 miCalmMostly Cloudy
10:11 PM26.6 °F19.4 °F74 %29.62 in10.0 miCalmMostly Cloudy
10:31 PM26.6 °F19.4 °F74 %29.62 in10.0 miNNW (340°)3.5 mphOvercast
10:51 PM26.6 °F19.4 °F74 %29.62 in10.0 miCalmOvercast
11:11 PM24.8 °F19.4 °F80 %29.62 in10.0 miCalmMostly Cloudy
11:32 PM23.0 °F17.6 °F80 %29.62 in10.0 miCalmScattered Clouds
11:51 PM21.2 °F17.6 °F86 %29.63 in10.0 miCalmScattered Clouds
Hourly data recorded from KTWM, located miles away from Port Wing, Wisconsin







STORIES FROM OUR PARTNERS